Location: Wildlife_Club
(35.6000°N, 81.4330°W)
Time: 13:17:49
(UTC-04:00)

A-11 Canister half - Pass Details

Date: 04 July 2019
Orbit: 1514 x 1685 km, 47.2° (Epoch: 17 July)

Event Time Altitude Azimuth Distance (km) Brightness Sun altitude
Rises 17:10:32 0° 294° (WNW) 4,798 12.3 40.9°
Reaches altitude 10° 17:14:39 10° 279° (W) 3,779 12.3 40.1°
Maximum altitude 17:21:08 21° 235° (SW) 2,964 11.5 38.8°
Drops below altitude 10° 17:27:30 10° 191° (SSW) 3,690 11.2 37.5°
Sets 17:31:31 0° 176° (S) 4,653 11.5 36.7°
